Location: Newark
(9.4667°S, 159.8167°E)
Time: 21:24:31
(UTC+00:00)

Explorer 7 - Pass Details

Date: 22 November 2019
Orbit: 485 x 680 km, 50.3° (Epoch: 06 December)

Event Time Altitude Azimuth Distance (km) Brightness Sun altitude
Rises 08:33:10 0° 219° (SW) 2,977 11.7 -16.5°
Reaches altitude 10° 08:35:30 10° 219° (SW) 2,082 10.7 -17.1°
Maximum altitude 08:40:20 86° 306° (NW) 680 7.2 -18.1°
Enters shadow 08:42:36 32° 34° (NE) 1,142 7.9 -18.6°
